SCP
0 0 0 0 0 0 0 0 0 0 0 0 0 0 0 0 0 0 0 -0 -0 -0 -0 -0 -0 -0 -0 -0 -0 -0 -0 -0 -0 -0 -0 -0 -0 -0 -0 -0 -0 -0 -0 -0 -0 -0 -0 -0 -0
0 0 0 0 0 0 0 0 0 0 0 0 -0 0 0 0 -0 0 0 -0 -0 -0 -0 0 -0 -0 -0 -0 -0 -0 -0 -0 -0 -0 -0 -0 -0 -0 -0 -0 -0 -0 -0 -0 -0 -0 -0 -0 -0
0 0 0 0 0 0 0 0 0 0 0 0 0 0 0 -0 0 0 -0 -0 -0 -0 -0 -0 -0 -0 -0 -0 -0 -0 -0 -0 -0 -0 -0 -0 -0 -0 -0 -0 -0 -0 -0 -0 -0 -0 -0 -0 -0
0 0 0 0 0 0 0 0 0 0 0 0 0 0 0 0 -0 -0 -0 -0 -0 -0 -0 -0 -0 -0 -0 -0 -0 -0 -0 -0 -0 -0 -0 -0 -0 -0 -0 -0 -0 -0 -0 -0 -0 -0 -0 -0 -0
0 0 0 0 0 0 0 0 0 0 0 0 0 0 0 -0 -0 -0 -0 -0 -0 -0 -0 -0 -0 -0 -0 -0 -0 -0 -0 -0 -0 -0 -0 -0 -0 -0 -0 -0 -0 -0 -0 -0 -0 -0 0 0 0
0 0 0 0 0 0 0 0 0 0 0 0 0 0 0 -0 -0 -0 -0 -0 -0 -0 -0 -0 -0 -0 -0 -0 -0 -0 -0 -0 -0 -0 -0 0 0 0 -0 -0 0 0 0 0 0 0 0 0 -0
0 0 0 0 0 0 0 0 0 0 0 0 -0 0 0 0 -0 -0 -0 -0 -0 -0 -0 0 -0 0 -0 -0 0 -0 -0 -0 -0 -0 -0 -0 0 0 0 0 0 0 0 0 0 0 0 0 -0
0 0 0 0 0 0 0 0 0 0 0 0 0 0 0 0 -0 -0 -0 -0 -0 -0 -0 0 0 -0 0 0 -0 -0 -0 -0 -0 0 0 0 0 0 0 0 -0 0 0 0 0 0 0 -0 -0
0 0 0 0 0 0 0 0 0 0 0 0 0 0 -0 -0 -0 -0 -0 -0 0 0 0 0 0 -0 -0 -0 0 0 0 0 0 0 0 0 0 0 0 0 0 0 0 0 0 0 0 0 -0
0 0 0 0 0 0 0 0 0 0 0 0 0 0 -0 -0 -0 -0 -0 -0 -0 0 0 0 0 0 0 -0 0 0 0 0 0 0 0 0 0 0 0 0 0 0 0 0 0 0 0 0 0
0 0 0 0 0 0 0 0 0 0 0 0 0 -0 -0 -0 -0 -0 -0 -0 -0 -0 -0 -0 -0 0 0 -0 0 0 0 0 0 0 0 0 0 0 0 0 0 0 0 0 0 0 0 0 0
0 0 0 0 0 0 0 0 0 0 0 0 0 -0 -0 -0 -0 -0 -0 -0 -0 -0 0 0 -0 0 0 0 0 0 0 0 0 0 0 0 0 0 0 0 0 0 0 0 0 0 0 0 0
0 0 0 0 0 0 0 0 0 0 0 0 0 0 0 0 0 0 -0 -0 -0 0 0 0 0 0 0 0 0 0 0 0 0 0 0 0 0 0 0 0 0 0 0 0 0 0 0 0 0
0 0 0 0 0 0 0 0 0 0 0 0 0 0 0 0 0 0 0 0 -0 -0 0 0 0 0 0 0 0 0 0 0 0 0 0 0 0 0 0 0 0 0 0 0 0 0 0 0 0
0 0 0 0 0 0 0 0 0 0 0 0 0 0 0 0 0 0 0 0 0 0 0 0 0 0 0 0 0 0 0 0 0 0 0 0 0 0 0 0 0 0 0 0 0 0 0 0 0
0 0 0 0 0 0 0 0 0 0 0 0 0 0 0 0 0 0 0 0 0 0 0 0 0 0 0 0 0 0 0 0 0 0 0 0 0 0 0 0 0 0 0 0 0 0 0 0 0
0 0 0 0 0 0 0 0 0 0 0 0 0 0 0 0 -0 -0 0 0 0 0 0 0 0 0 0 0 0 0 0 0 0 0 0 0 0 0 0 0 0 0 0 0 0 0 0 0 0
0 0 0 0 0 0 0 0 0 0 0 0 0 0 0 0 -0 -0 0 0 0 0 0 0 0 0 0 0 0 0 0 0 0 0 0 0 0 0 0 0 0 0 0 0 0 0 0 0 0
0 0 0 0 0 0 0 0 0 0 0 0 0 0 0 0 -0 0 0 0 0 0 0 0 0 0 0 0 0 0 0 0 0 0 0 0 0 0 0 0 0 0 0 0 0 0 0 0 0
0 0 0 0 0 0 0 0 0 0 0 0 0 0 0 0 0 0 0 0 0 0 0 0 0 0 0 0 0 0 0 0 0 0 0 0 0 0 0 0 0 0 0 0 0 0 0 0 0
0 0 0 0 0 0 0 0 0 0 0 0 0 0 0 0 0 0 0 0 0 0 0 0 0 0 0 0 0 0 0 0 0 0 0 0 0 0 0 0 0 0 0 0 0 0 0 0 0
0 0 0 0 0 0 0 0 0 0 0 0 0 0 0 0 0 0 0 0 0 0 0 0 0 0 0 0 0 0 0 0 0 0 0 0 0 0 0 0 0 0 0 0 0 0 0 0 0
0 0 0 0 0 0 0 0 0 0 0 0 0 0 0 0 0 0 0 0 0 0 0 0 0 0 0 0 0 0 0 0 0 0 0 0 0 0 0 0 0 0 0 0 0 0 0 0 0
0 0 0 0 0 0 0 0 0 0 0 0 0 0 0 0 0 0 0 0 0 0 0 0 0 0 0 0 0 0 0 0 0 0 0 0 0 0 0 0 0 0 0 0 0 0 0 0 0
0 0 0 0 0 0 0 0 0 0 0 0 0 0 0 -0 0 0 0 0 0 0 0 0 0 0 0 0 0 0 0 0 0 0 0 0 0 0 0 0 0 0 0 0 0 0 0 0 0
0 0 0 0 0 0 0 0 0 0 0 0 0 0 0 0 0 0 0 0 0 0 0 0 0 0 0 0 0 0 0 0 0 0 0 0 0 0 0 0 0 0 0 0 0 0 0 0 0
0 0 0 0 0 0 0 0 0 0 0 0 0 0 0 0 0 0 0 0 0 0 0 0 0 0 0 0 0 0 0 0 0 0 0 0 0 0 0 0 0 0 0 0 0 0 0 0 0
0 0 0 0 0 0 0 0 0 0 0 0 0 0 0 0 0 0 0 0 0 0 0 0 0 0 0 0 0 0 0 0 0 0 0 0 0 0 0 0 0 0 0 0 0 0 0 0 0
0 0 0 0 0 0 0 0 0 0 0 0 0 0 0 0 0 0 0 0 0 0 0 0 0 0 0 0 0 0 0 0 0 0 0 0 0 0 0 0 0 0 0 0 0 0 0 0 0
0 0 0 0 0 0 0 0 0 0 0 0 0 0 0 0 0 0 0 0 0 0 0 0 0 0 0 0 0 0 0 0 0 0 0 0 0 0 0 0 0 0 0 0 0 0 0 0 0
Wind_Speed_500mb
10 18 15 5 6 8 6 3 2 6 8 6 27 28 18 14 5 5 34 30 32 35 34 28 29 31 30 30 28 25 19 18 17 15 12 12 14 14 14 13 11 9 10 12 9 13 16 18 20
9 7 3 2 7 3 8 6 8 2 33 42 30 20 17 6 10 32 48 27 34 35 36 28 29 31 31 26 22 21 17 16 14 12 11 12 16 16 12 7 3 2 5 8 8 13 16 16 18
5 2 3 6 2 4 5 7 11 13 18 11 13 24 9 10 19 51 36 38 36 36 35 29 27 28 30 25 18 18 15 15 13 11 13 14 18 16 16 11 9 8 3 6 8 11 17 20 19
3 2 2 5 7 7 12 15 16 19 16 13 33 18 16 14 36 33 38 35 37 36 34 28 26 25 29 27 18 13 13 13 14 15 13 14 15 14 12 7 1 4 4 3 6 10 12 15 17
5 3 5 3 7 6 4 19 13 11 12 24 11 7 11 28 20 36 36 36 37 37 33 29 27 25 24 21 18 16 16 17 16 16 15 13 11 8 7 8 8 11 9 9 8 8 9 10 11
5 3 4 4 9 4 2 21 25 12 21 23 26 17 15 24 26 35 35 30 33 32 31 27 26 23 21 18 18 20 18 17 17 15 14 13 10 8 6 5 6 7 8 8 10 11 11 10 10
6 5 6 7 7 7 9 26 22 20 22 11 45 10 23 40 36 37 34 25 29 24 26 25 24 25 21 17 17 18 16 16 16 15 13 12 10 8 7 7 7 7 9 9 9 10 9 8 8
12 4 5 4 8 6 11 16 27 39 6 44 29 14 17 53 53 44 31 23 22 22 24 23 23 23 22 18 14 13 14 15 14 12 8 6 5 3 3 4 5 7 6 7 7 7 6 6 5
13 3 5 3 7 7 26 10 14 19 40 13 15 23 24 63 58 47 40 30 27 23 26 24 23 22 21 19 14 11 9 9 7 5 4 2 1 3 2 3 2 5 7 7 8 8 9 8 7
7 5 10 2 4 7 7 17 21 14 26 11 21 18 59 72 63 54 46 39 33 25 31 28 27 25 22 19 16 13 10 7 6 5 6 4 3 3 5 8 9 9 11 12 12 12 12 10 10
6 7 2 5 13 9 12 21 8 37 4 25 45 58 75 72 64 54 45 38 34 22 25 27 29 27 25 23 19 15 11 8 5 3 2 2 7 10 10 11 13 13 15 13 14 16 15 14 14
8 7 10 10 15 11 9 23 18 15 13 31 39 51 70 73 69 59 52 41 38 26 26 26 25 28 27 23 17 13 12 11 7 4 2 6 10 12 13 15 18 19 15 18 18 20 19 19 19
5 7 13 16 24 16 8 11 15 16 14 36 52 64 64 66 67 55 46 40 38 32 29 24 23 24 23 18 16 15 13 10 7 5 5 6 9 13 16 15 17 18 22 22 19 21 20 23 23
9 7 17 8 17 12 12 7 14 14 32 54 60 66 61 60 64 55 51 44 43 33 31 28 29 25 27 24 21 18 18 15 14 12 10 11 12 15 17 19 21 22 23 23 24 27 28 30 31
6 4 11 3 9 8 0 2 9 24 55 65 65 63 58 58 59 58 53 48 42 35 32 33 28 27 29 27 24 23 21 22 19 18 17 17 18 19 20 21 23 26 27 29 31 31 33 35 36
9 2 8 6 26 9 3 13 7 35 63 61 63 62 58 57 58 54 50 47 42 36 39 34 32 29 30 30 30 27 28 28 26 26 27 26 25 27 27 29 28 26 30 33 36 35 32 35 37
4 15 8 7 12 10 6 8 8 36 55 58 60 61 56 53 52 49 44 40 38 38 33 40 36 34 32 32 33 32 32 34 35 35 37 36 36 36 38 37 36 34 36 39 41 39 41 45 47
18 16 4 7 6 9 2 3 9 18 44 52 58 59 56 56 54 44 42 40 34 34 35 35 33 36 33 30 31 35 39 41 41 45 46 47 46 46 49 49 47 45 46 45 46 47 46 50 52
27 19 11 2 8 3 8 2 9 14 12 32 43 54 55 52 41 42 43 40 39 38 37 37 37 34 32 37 37 39 45 49 52 52 53 55 57 58 59 60 59 56 55 51 49 49 52 53 52
30 29 15 4 4 1 10 7 8 8 7 24 29 44 56 53 48 44 44 43 42 36 34 37 42 42 40 41 42 43 48 53 55 54 58 62 66 68 68 71 69 65 64 59 55 53 55 58 53
7 30 22 12 6 4 9 9 6 3 9 9 19 16 32 37 32 34 40 44 44 43 44 46 44 41 39 38 44 50 53 60 65 64 65 66 67 69 72 69 69 66 67 66 62 58 57 59 51
10 3 22 15 16 7 5 7 7 4 8 8 10 8 18 17 21 20 15 23 34 37 36 34 34 33 36 41 46 50 54 62 65 64 64 64 64 65 64 63 65 67 67 70 67 60 60 58 57
6 15 13 10 10 8 0 2 10 7 9 10 32 16 29 21 15 20 17 13 10 12 15 21 26 30 35 40 44 50 55 61 59 60 61 64 67 69 69 70 69 66 64 66 66 63 62 61 58
29 23 23 12 5 6 11 12 6 11 13 4 2 7 21 27 25 23 20 15 11 8 4 1 5 11 16 21 26 33 40 44 47 50 56 61 66 65 62 62 62 62 65 67 67 63 61 63 73
25 17 6 4 5 6 8 12 11 8 21 28 33 10 18 9 17 38 40 42 39 36 31 25 20 15 14 15 17 20 26 32 38 42 48 53 57 56 54 55 63 68 68 65 66 66 64 66 75
30 8 9 13 10 7 7 9 4 5 17 43 53 52 47 38 44 46 41 37 34 31 27 23 20 20 21 23 24 26 30 34 37 40 41 45 50 51 52 56 61 64 64 65 66 67 66 65 69
11 8 8 11 4 6 7 5 4 8 13 35 40 43 43 55 45 40 34 27 22 21 20 21 22 21 20 20 22 26 29 32 36 39 43 45 46 50 52 53 58 60 62 65 66 68 69 68 68
7 11 5 5 7 4 5 2 8 9 14 20 31 41 47 45 36 30 27 23 22 23 24 25 27 26 29 30 34 38 42 44 45 47 49 50 49 52 55 57 59 62 64 66 68 71 72 72 76
5 5 8 8 7 8 8 8 8 14 14 24 36 46 40 33 34 30 27 24 26 27 31 31 29 27 26 30 33 33 32 36 41 44 47 52 54 55 57 60 64 66 67 67 71 74 76 79 82
5 9 7 7 6 1 4 3 7 16 21 40 42 40 42 37 32 28 26 24 25 25 24 27 30 33 36 36 37 37 39 40 42 45 49 53 58 61 65 67 71 73 72 71 73 78 78 82 86
Wind_Direction_500mb
98 127 138 142 54 57 295 306 74 129 63 69 85 98 104 70 79 171 138 153 166 159 154 147 145 145 141 143 151 155 145 145 144 146 142 140 141 129 120 112 96 68 42 27 43 38 55 71 77
129 131 142 97 91 50 279 284 134 108 131 105 78 81 51 76 110 141 148 161 162 154 151 142 142 148 152 147 151 158 159 150 146 137 137 144 160 163 160 151 137 22 360 7 38 51 51 81 88
145 195 7 92 148 211 215 164 152 130 145 118 102 78 79 111 141 147 151 154 160 156 152 143 138 148 151 144 150 148 148 147 141 140 138 140 150 164 181 204 245 256 291 21 39 57 66 76 85
123 205 54 97 237 266 185 188 155 130 99 88 115 71 88 136 150 160 149 156 158 158 156 148 141 142 154 155 163 156 147 140 129 121 126 131 142 148 159 165 124 96 156 57 40 65 73 68 76
326 80 55 285 270 293 108 174 164 117 102 122 116 108 95 142 163 155 154 159 161 158 159 158 152 141 146 152 148 144 138 131 122 112 110 118 131 135 135 131 93 87 94 82 65 58 64 58 62
349 55 78 222 270 49 54 175 145 113 120 126 107 99 134 170 168 165 162 157 164 156 158 162 159 151 151 151 142 140 139 133 125 115 105 99 99 100 94 84 61 50 52 57 64 66 65 65 65
1 76 221 151 253 154 212 165 145 138 142 140 140 94 141 167 178 175 168 164 163 161 164 165 164 162 161 151 154 155 150 147 132 121 104 95 83 73 63 54 45 35 31 36 44 52 52 53 54
308 87 276 181 214 240 185 164 156 152 143 144 140 155 173 172 170 167 170 171 173 171 176 172 169 169 168 161 153 134 127 118 124 121 116 107 104 92 57 39 34 29 22 7 6 12 8 1 350
278 33 246 215 188 245 176 133 160 136 138 147 185 171 172 163 167 171 172 177 177 179 185 179 173 170 169 168 168 165 159 150 152 154 161 169 226 243 312 229 286 317 309 306 309 313 307 306 308
208 175 228 241 278 274 198 143 147 135 134 102 149 159 154 159 172 175 179 181 185 189 190 185 179 173 173 175 173 178 188 199 210 230 231 214 216 284 268 280 277 277 283 279 280 281 283 297 297
266 220 227 274 310 302 167 145 137 138 259 169 153 152 159 164 175 181 186 189 189 198 194 184 185 184 187 184 183 185 196 212 221 228 174 324 332 343 320 307 291 280 288 279 271 274 280 277 285
275 277 17 312 309 319 169 156 139 158 214 189 181 167 164 172 179 184 188 190 188 194 190 192 195 197 192 183 176 179 186 181 176 152 31 346 337 335 336 339 331 324 295 272 282 275 266 272 270
245 310 329 318 300 299 202 199 162 209 193 172 167 167 171 176 181 187 194 193 198 203 199 199 200 201 202 194 196 199 201 200 213 242 273 304 317 315 313 319 318 312 323 331 323 307 289 286 293
185 268 298 331 296 305 178 188 162 190 176 168 170 174 178 181 182 186 198 202 205 207 207 209 208 206 211 211 207 217 222 223 231 242 256 272 289 297 302 303 306 308 309 312 309 294 267 268 274
95 10 322 288 334 296 164 114 207 167 169 169 176 180 183 186 186 194 198 204 208 210 214 214 214 215 222 226 227 231 237 240 245 255 261 272 279 282 288 293 298 301 298 297 292 289 275 269 269
126 40 181 9 19 290 254 215 216 169 168 173 181 186 187 189 194 199 203 207 214 218 222 220 221 224 228 234 237 240 244 253 258 259 263 270 274 275 276 280 287 292 287 285 282 282 275 276 277
306 199 194 168 58 292 213 217 180 180 179 178 187 188 191 192 200 203 201 203 211 217 224 225 228 236 240 240 244 250 253 259 262 264 267 271 273 273 273 277 282 282 284 284 282 273 271 275 279
159 171 111 177 5 335 232 27 35 186 190 187 189 191 195 197 202 202 207 210 216 224 231 239 238 244 248 252 256 258 259 261 263 266 270 273 273 274 275 278 279 278 280 284 281 277 269 267 273
154 162 140 57 349 299 340 236 308 342 222 199 199 199 200 204 206 208 211 217 222 227 233 244 248 251 253 259 263 267 271 275 273 273 275 276 278 279 277 278 277 275 275 282 281 275 270 266 270
178 156 168 99 312 166 359 301 290 309 238 215 205 206 206 207 209 208 211 216 221 232 239 244 249 251 254 259 272 274 277 279 278 277 276 275 276 278 278 277 276 274 273 275 279 275 269 264 261
198 183 170 168 132 41 341 328 359 302 240 230 214 191 208 215 213 207 208 210 214 220 228 233 235 239 247 255 259 263 267 273 279 283 286 282 279 279 278 278 276 275 274 275 278 277 269 264 261
176 179 182 142 162 196 337 230 303 308 330 348 217 135 121 128 135 145 174 211 224 228 230 233 241 246 252 259 266 271 275 277 282 286 284 281 278 279 279 277 278 281 279 277 277 276 271 262 257
143 110 112 128 106 127 251 55 277 35 311 39 359 96 101 109 118 127 124 139 157 181 206 228 242 253 259 265 271 276 281 283 288 289 288 289 287 285 284 282 283 282 281 279 276 275 272 263 260
121 93 59 44 63 212 185 171 253 195 222 74 16 18 95 118 110 98 85 87 103 100 100 279 282 276 280 285 290 291 292 294 293 294 291 290 287 286 285 286 286 285 288 284 277 275 272 267 265
132 136 107 123 193 216 157 148 254 197 180 215 186 185 286 69 102 100 98 84 77 74 69 63 55 41 15 356 348 334 323 314 311 307 302 299 297 296 294 290 287 287 287 282 277 274 271 265 264
163 179 155 165 178 160 135 195 194 100 111 134 151 151 141 123 105 92 82 75 69 63 58 51 41 31 20 11 3 354 344 337 329 323 315 308 305 303 298 292 290 290 289 284 279 276 274 270 264
191 202 154 112 28 97 186 210 30 116 76 111 121 120 119 116 101 79 78 75 67 62 49 36 26 15 358 348 345 345 343 337 331 326 322 317 313 308 302 299 297 296 294 290 284 279 275 270 266
191 168 94 16 124 129 243 229 145 147 131 116 123 128 130 118 92 86 80 71 56 45 30 12 4 357 349 344 340 339 339 335 332 330 327 323 318 312 308 305 302 298 296 293 290 285 280 271 266
163 147 60 105 121 152 138 257 178 176 161 133 133 134 127 107 100 90 77 60 47 34 26 24 22 18 9 1 354 343 333 326 324 322 320 319 318 316 312 309 305 302 299 296 292 289 283 276 270
244 163 146 127 220 130 105 306 32 134 159 140 130 110 118 111 99 86 73 57 40 32 25 18 14 7 3 355 349 343 340 334 327 321 315 312 310 310 310 310 307 303 299 296 294 291 286 280 275
Wind_Speed_850mb
10 18 15 5 6 8 6 3 2 6 8 6 27 28 18 14 5 5 34 30 32 35 34 28 29 31 30 30 28 25 19 18 17 15 12 12 14 14 14 13 11 9 10 12 9 13 16 18 20
9 7 3 2 7 3 8 6 8 2 33 42 30 20 17 6 10 32 48 27 34 35 36 28 29 31 31 26 22 21 17 16 14 12 11 12 16 16 12 7 3 2 5 8 8 13 16 16 18
5 2 3 6 2 4 5 7 11 13 18 11 13 24 9 10 19 51 36 38 36 36 35 29 27 28 30 25 18 18 15 15 13 11 13 14 18 16 16 11 9 8 3 6 8 11 17 20 19
3 2 2 5 7 7 12 15 16 19 16 13 33 18 16 14 36 33 38 35 37 36 34 28 26 25 29 27 18 13 13 13 14 15 13 14 15 14 12 7 1 4 4 3 6 10 12 15 17
5 3 5 3 7 6 4 19 13 11 12 24 11 7 11 28 20 36 36 36 37 37 33 29 27 25 24 21 18 16 16 17 16 16 15 13 11 8 7 8 8 11 9 9 8 8 9 10 11
5 3 4 4 9 4 2 21 25 12 21 23 26 17 15 24 26 35 35 30 33 32 31 27 26 23 21 18 18 20 18 17 17 15 14 13 10 8 6 5 6 7 8 8 10 11 11 10 10
6 5 6 7 7 7 9 26 22 20 22 11 45 10 23 40 36 37 34 25 29 24 26 25 24 25 21 17 17 18 16 16 16 15 13 12 10 8 7 7 7 7 9 9 9 10 9 8 8
12 4 5 4 8 6 11 16 27 39 6 44 29 14 17 53 53 44 31 23 22 22 24 23 23 23 22 18 14 13 14 15 14 12 8 6 5 3 3 4 5 7 6 7 7 7 6 6 5
13 3 5 3 7 7 26 10 14 19 40 13 15 23 24 63 58 47 40 30 27 23 26 24 23 22 21 19 14 11 9 9 7 5 4 2 1 3 2 3 2 5 7 7 8 8 9 8 7
7 5 10 2 4 7 7 17 21 14 26 11 21 18 59 72 63 54 46 39 33 25 31 28 27 25 22 19 16 13 10 7 6 5 6 4 3 3 5 8 9 9 11 12 12 12 12 10 10
6 7 2 5 13 9 12 21 8 37 4 25 45 58 75 72 64 54 45 38 34 22 25 27 29 27 25 23 19 15 11 8 5 3 2 2 7 10 10 11 13 13 15 13 14 16 15 14 14
8 7 10 10 15 11 9 23 18 15 13 31 39 51 70 73 69 59 52 41 38 26 26 26 25 28 27 23 17 13 12 11 7 4 2 6 10 12 13 15 18 19 15 18 18 20 19 19 19
5 7 13 16 24 16 8 11 15 16 14 36 52 64 64 66 67 55 46 40 38 32 29 24 23 24 23 18 16 15 13 10 7 5 5 6 9 13 16 15 17 18 22 22 19 21 20 23 23
9 7 17 8 17 12 12 7 14 14 32 54 60 66 61 60 64 55 51 44 43 33 31 28 29 25 27 24 21 18 18 15 14 12 10 11 12 15 17 19 21 22 23 23 24 27 28 30 31
6 4 11 3 9 8 0 2 9 24 55 65 65 63 58 58 59 58 53 48 42 35 32 33 28 27 29 27 24 23 21 22 19 18 17 17 18 19 20 21 23 26 27 29 31 31 33 35 36
9 2 8 6 26 9 3 13 7 35 63 61 63 62 58 57 58 54 50 47 42 36 39 34 32 29 30 30 30 27 28 28 26 26 27 26 25 27 27 29 28 26 30 33 36 35 32 35 37
4 15 8 7 12 10 6 8 8 36 55 58 60 61 56 53 52 49 44 40 38 38 33 40 36 34 32 32 33 32 32 34 35 35 37 36 36 36 38 37 36 34 36 39 41 39 41 45 47
18 16 4 7 6 9 2 3 9 18 44 52 58 59 56 56 54 44 42 40 34 34 35 35 33 36 33 30 31 35 39 41 41 45 46 47 46 46 49 49 47 45 46 45 46 47 46 50 52
27 19 11 2 8 3 8 2 9 14 12 32 43 54 55 52 41 42 43 40 39 38 37 37 37 34 32 37 37 39 45 49 52 52 53 55 57 58 59 60 59 56 55 51 49 49 52 53 52
30 29 15 4 4 1 10 7 8 8 7 24 29 44 56 53 48 44 44 43 42 36 34 37 42 42 40 41 42 43 48 53 55 54 58 62 66 68 68 71 69 65 64 59 55 53 55 58 53
7 30 22 12 6 4 9 9 6 3 9 9 19 16 32 37 32 34 40 44 44 43 44 46 44 41 39 38 44 50 53 60 65 64 65 66 67 69 72 69 69 66 67 66 62 58 57 59 51
10 3 22 15 16 7 5 7 7 4 8 8 10 8 18 17 21 20 15 23 34 37 36 34 34 33 36 41 46 50 54 62 65 64 64 64 64 65 64 63 65 67 67 70 67 60 60 58 57
6 15 13 10 10 8 0 2 10 7 9 10 32 16 29 21 15 20 17 13 10 12 15 21 26 30 35 40 44 50 55 61 59 60 61 64 67 69 69 70 69 66 64 66 66 63 62 61 58
29 23 23 12 5 6 11 12 6 11 13 4 2 7 21 27 25 23 20 15 11 8 4 1 5 11 16 21 26 33 40 44 47 50 56 61 66 65 62 62 62 62 65 67 67 63 61 63 73
25 17 6 4 5 6 8 12 11 8 21 28 33 10 18 9 17 38 40 42 39 36 31 25 20 15 14 15 17 20 26 32 38 42 48 53 57 56 54 55 63 68 68 65 66 66 64 66 75
30 8 9 13 10 7 7 9 4 5 17 43 53 52 47 38 44 46 41 37 34 31 27 23 20 20 21 23 24 26 30 34 37 40 41 45 50 51 52 56 61 64 64 65 66 67 66 65 69
11 8 8 11 4 6 7 5 4 8 13 35 40 43 43 55 45 40 34 27 22 21 20 21 22 21 20 20 22 26 29 32 36 39 43 45 46 50 52 53 58 60 62 65 66 68 69 68 68
7 11 5 5 7 4 5 2 8 9 14 20 31 41 47 45 36 30 27 23 22 23 24 25 27 26 29 30 34 38 42 44 45 47 49 50 49 52 55 57 59 62 64 66 68 71 72 72 76
5 5 8 8 7 8 8 8 8 14 14 24 36 46 40 33 34 30 27 24 26 27 31 31 29 27 26 30 33 33 32 36 41 44 47 52 54 55 57 60 64 66 67 67 71 74 76 79 82
5 9 7 7 6 1 4 3 7 16 21 40 42 40 42 37 32 28 26 24 25 25 24 27 30 33 36 36 37 37 39 40 42 45 49 53 58 61 65 67 71 73 72 71 73 78 78 82 86
Wind_Direction_850mb
98 127 138 142 54 57 295 306 74 129 63 69 85 98 104 70 79 171 138 153 166 159 154 147 145 145 141 143 151 155 145 145 144 146 142 140 141 129 120 112 96 68 42 27 43 38 55 71 77
129 131 142 97 91 50 279 284 134 108 131 105 78 81 51 76 110 141 148 161 162 154 151 142 142 148 152 147 151 158 159 150 146 137 137 144 160 163 160 151 137 22 360 7 38 51 51 81 88
145 195 7 92 148 211 215 164 152 130 145 118 102 78 79 111 141 147 151 154 160 156 152 143 138 148 151 144 150 148 148 147 141 140 138 140 150 164 181 204 245 256 291 21 39 57 66 76 85
123 205 54 97 237 266 185 188 155 130 99 88 115 71 88 136 150 160 149 156 158 158 156 148 141 142 154 155 163 156 147 140 129 121 126 131 142 148 159 165 124 96 156 57 40 65 73 68 76
326 80 55 285 270 293 108 174 164 117 102 122 116 108 95 142 163 155 154 159 161 158 159 158 152 141 146 152 148 144 138 131 122 112 110 118 131 135 135 131 93 87 94 82 65 58 64 58 62
349 55 78 222 270 49 54 175 145 113 120 126 107 99 134 170 168 165 162 157 164 156 158 162 159 151 151 151 142 140 139 133 125 115 105 99 99 100 94 84 61 50 52 57 64 66 65 65 65
1 76 221 151 253 154 212 165 145 138 142 140 140 94 141 167 178 175 168 164 163 161 164 165 164 162 161 151 154 155 150 147 132 121 104 95 83 73 63 54 45 35 31 36 44 52 52 53 54
308 87 276 181 214 240 185 164 156 152 143 144 140 155 173 172 170 167 170 171 173 171 176 172 169 169 168 161 153 134 127 118 124 121 116 107 104 92 57 39 34 29 22 7 6 12 8 1 350
278 33 246 215 188 245 176 133 160 136 138 147 185 171 172 163 167 171 172 177 177 179 185 179 173 170 169 168 168 165 159 150 152 154 161 169 226 243 312 229 286 317 309 306 309 313 307 306 308
208 175 228 241 278 274 198 143 147 135 134 102 149 159 154 159 172 175 179 181 185 189 190 185 179 173 173 175 173 178 188 199 210 230 231 214 216 284 268 280 277 277 283 279 280 281 283 297 297
266 220 227 274 310 302 167 145 137 138 259 169 153 152 159 164 175 181 186 189 189 198 194 184 185 184 187 184 183 185 196 212 221 228 174 324 332 343 320 307 291 280 288 279 271 274 280 277 285
275 277 17 312 309 319 169 156 139 158 214 189 181 167 164 172 179 184 188 190 188 194 190 192 195 197 192 183 176 179 186 181 176 152 31 346 337 335 336 339 331 324 295 272 282 275 266 272 270
245 310 329 318 300 299 202 199 162 209 193 172 167 167 171 176 181 187 194 193 198 203 199 199 200 201 202 194 196 199 201 200 213 242 273 304 317 315 313 319 318 312 323 331 323 307 289 286 293
185 268 298 331 296 305 178 188 162 190 176 168 170 174 178 181 182 186 198 202 205 207 207 209 208 206 211 211 207 217 222 223 231 242 256 272 289 297 302 303 306 308 309 312 309 294 267 268 274
95 10 322 288 334 296 164 114 207 167 169 169 176 180 183 186 186 194 198 204 208 210 214 214 214 215 222 226 227 231 237 240 245 255 261 272 279 282 288 293 298 301 298 297 292 289 275 269 269
126 40 181 9 19 290 254 215 216 169 168 173 181 186 187 189 194 199 203 207 214 218 222 220 221 224 228 234 237 240 244 253 258 259 263 270 274 275 276 280 287 292 287 285 282 282 275 276 277
306 199 194 168 58 292 213 217 180 180 179 178 187 188 191 192 200 203 201 203 211 217 224 225 228 236 240 240 244 250 253 259 262 264 267 271 273 273 273 277 282 282 284 284 282 273 271 275 279
159 171 111 177 5 335 232 27 35 186 190 187 189 191 195 197 202 202 207 210 216 224 231 239 238 244 248 252 256 258 259 261 263 266 270 273 273 274 275 278 279 278 280 284 281 277 269 267 273
154 162 140 57 349 299 340 236 308 342 222 199 199 199 200 204 206 208 211 217 222 227 233 244 248 251 253 259 263 267 271 275 273 273 275 276 278 279 277 278 277 275 275 282 281 275 270 266 270
178 156 168 99 312 166 359 301 290 309 238 215 205 206 206 207 209 208 211 216 221 232 239 244 249 251 254 259 272 274 277 279 278 277 276 275 276 278 278 277 276 274 273 275 279 275 269 264 261
198 183 170 168 132 41 341 328 359 302 240 230 214 191 208 215 213 207 208 210 214 220 228 233 235 239 247 255 259 263 267 273 279 283 286 282 279 279 278 278 276 275 274 275 278 277 269 264 261
176 179 182 142 162 196 337 230 303 308 330 348 217 135 121 128 135 145 174 211 224 228 230 233 241 246 252 259 266 271 275 277 282 286 284 281 278 279 279 277 278 281 279 277 277 276 271 262 257
143 110 112 128 106 127 251 55 277 35 311 39 359 96 101 109 118 127 124 139 157 181 206 228 242 253 259 265 271 276 281 283 288 289 288 289 287 285 284 282 283 282 281 279 276 275 272 263 260
121 93 59 44 63 212 185 171 253 195 222 74 16 18 95 118 110 98 85 87 103 100 100 279 282 276 280 285 290 291 292 294 293 294 291 290 287 286 285 286 286 285 288 284 277 275 272 267 265
132 136 107 123 193 216 157 148 254 197 180 215 186 185 286 69 102 100 98 84 77 74 69 63 55 41 15 356 348 334 323 314 311 307 302 299 297 296 294 290 287 287 287 282 277 274 271 265 264
163 179 155 165 178 160 135 195 194 100 111 134 151 151 141 123 105 92 82 75 69 63 58 51 41 31 20 11 3 354 344 337 329 323 315 308 305 303 298 292 290 290 289 284 279 276 274 270 264
191 202 154 112 28 97 186 210 30 116 76 111 121 120 119 116 101 79 78 75 67 62 49 36 26 15 358 348 345 345 343 337 331 326 322 317 313 308 302 299 297 296 294 290 284 279 275 270 266
191 168 94 16 124 129 243 229 145 147 131 116 123 128 130 118 92 86 80 71 56 45 30 12 4 357 349 344 340 339 339 335 332 330 327 323 318 312 308 305 302 298 296 293 290 285 280 271 266
163 147 60 105 121 152 138 257 178 176 161 133 133 134 127 107 100 90 77 60 47 34 26 24 22 18 9 1 354 343 333 326 324 322 320 319 318 316 312 309 305 302 299 296 292 289 283 276 270
244 163 146 127 220 130 105 306 32 134 159 140 130 110 118 111 99 86 73 57 40 32 25 18 14 7 3 355 349 343 340 334 327 321 315 312 310 310 310 310 307 303 299 296 294 291 286 280 275